Audubon, IA

11:15 AM CDT on October 20, 2017 (GMT -0500)
Audubon County

Weather History for KADU - April, 2014

Change the Weather History Date:

Sunday, April 6, 2014

  Actual Average Record
Temperature  
Mean Temperature 50 °F -  
Max Temperature 62 °F 62 °F 88 °F (1991)
Min Temperature 39 °F 32 °F -99 °F (2001)
Degree Days  
Heating Degree Days 14    
Moisture  
Dew Point 31 °F    
Average Humidity 50    
Maximum Humidity 76    
Minimum Humidity 27    
Precipitation  
Precipitation 0.00 in - - ()
Sea Level Pressure  
Sea Level Pressure 29.93 in    
Wind  
Wind Speed 7 mph (South)    
Max Wind Speed 15 mph    
Max Gust Speed 18 mph    
Visibility 10 miles    
Events Rain    
Averages and records for this station are not official NWS values.
T = Trace of Precipitation, MM = Missing Value Source: NWS Daily Summary

Daily Weather History Graph

Daily Weather History Graph

Search for Another Location

Airport or City:

Trip Planner

Search our weather history database for the weather conditions in past years. The results will help you decide how hot, cold, wet, or windy it might be!

Date:

Astronomy

Apr. 06, 2014 Rise Set
Actual Time 6:54 AM CDT 7:50 PM CDT
Civil Twilight 6:25 AM CDT 8:18 PM CDT
Nautical Twilight 5:52 AM CDT 8:52 PM CDT
Astronomical Twilight 5:17 AM CDT 9:27 PM CDT
Moon 11:53 AM CDT (4/6) 1:49 AM CDT (4/6)
Length of Visible Light 13h 53m
Length of Day
12h 56m
Waxing Crescent, 44% of the Moon is Illuminated
Apr 6
Waxing Crescent
Apr 7
First Quarter
Apr 15
Full
Apr 22
Last Quarter
Apr 29
New

Hourly Weather History & Observations

Time (CDT) Temp. Windchill Dew Point Humidity Pressure Visibility Wind Dir Wind Speed Gust Speed Precip Events Conditions
12:15 AM 39.2 °F 35.9 °F 26.6 °F 61% 30.00 in 10.0 mi South 4.6 mph - N/A   Clear
12:35 AM 41.0 °F 37.1 °F 28.4 °F 61% 29.99 in 10.0 mi South 5.8 mph - N/A   Clear
12:55 AM 41.0 °F 36.4 °F 28.4 °F 61% 29.99 in 10.0 mi South 6.9 mph - N/A   Clear
1:15 AM 41.0 °F 37.1 °F 28.4 °F 61% 29.99 in 10.0 mi South 5.8 mph - N/A   Clear
1:35 AM 41.0 °F 37.1 °F 28.4 °F 61% 29.99 in 10.0 mi South 5.8 mph - N/A   Clear
1:55 AM 42.8 °F 40.1 °F 28.4 °F 57% 29.99 in 10.0 mi South 4.6 mph - N/A   Clear
2:15 AM 42.8 °F 41.1 °F 28.4 °F 57% 29.98 in 10.0 mi South 3.5 mph - N/A   Scattered Clouds
2:35 AM 42.8 °F 40.1 °F 30.2 °F 61% 29.98 in 10.0 mi South 4.6 mph - N/A   Scattered Clouds
2:55 AM 44.6 °F 40.2 °F 28.4 °F 53% 29.98 in 10.0 mi South 8.1 mph - N/A   Scattered Clouds
3:15 AM 44.6 °F 40.2 °F 28.4 °F 53% 29.97 in 10.0 mi South 8.1 mph - N/A   Scattered Clouds
3:35 AM 44.6 °F 40.2 °F 28.4 °F 53% 29.97 in 10.0 mi South 8.1 mph - N/A   Scattered Clouds
3:55 AM 44.6 °F 40.7 °F 28.4 °F 53% 29.97 in 10.0 mi South 6.9 mph - N/A   Scattered Clouds
4:15 AM 44.6 °F 40.2 °F 30.2 °F 57% 29.97 in 10.0 mi South 8.1 mph - N/A   Scattered Clouds
4:35 AM 44.6 °F 39.2 °F 30.2 °F 57% 29.97 in 10.0 mi South 10.4 mph - N/A   Clear
4:55 AM 46.4 °F 41.1 °F 28.4 °F 50% 29.97 in 10.0 mi South 11.5 mph 18.4 mph N/A   Clear
5:15 AM 46.4 °F 40.7 °F 28.4 °F 50% 29.97 in 10.0 mi South 12.7 mph 18.4 mph N/A   Clear
5:35 AM 46.4 °F 40.4 °F 28.4 °F 50% 29.96 in 10.0 mi South 13.8 mph - N/A   Clear
5:55 AM 46.4 °F 40.7 °F 28.4 °F 50% 29.96 in 10.0 mi South 12.7 mph - N/A   Clear
6:15 AM 46.4 °F 40.1 °F 28.4 °F 50% 29.97 in 10.0 mi South 15.0 mph 18.4 mph N/A   Clear
6:35 AM 46.4 °F 40.4 °F 28.4 °F 50% 29.98 in 10.0 mi SSW 13.8 mph 18.4 mph N/A   Drizzle
6:55 AM 46.4 °F 40.7 °F 28.4 °F 50% 29.98 in 10.0 mi South 12.7 mph - N/A   Clear
7:15 AM 46.4 °F 41.9 °F 28.4 °F 50% 29.97 in 10.0 mi South 9.2 mph - N/A   Clear
7:35 AM 46.4 °F 41.5 °F 28.4 °F 50% 29.98 in 10.0 mi South 10.4 mph - N/A   Clear
7:55 AM 46.4 °F 41.9 °F 28.4 °F 50% 29.98 in 10.0 mi South 9.2 mph 16.1 mph N/A   Clear
8:15 AM 46.4 °F 41.5 °F 28.4 °F 50% 29.98 in 10.0 mi South 10.4 mph - N/A   Clear
8:35 AM 46.4 °F 42.4 °F 28.4 °F 50% 29.98 in 10.0 mi South 8.1 mph - N/A   Drizzle
8:55 AM 46.4 °F 41.9 °F 30.2 °F 53% 29.98 in 10.0 mi South 9.2 mph - N/A   Clear
9:15 AM 46.4 °F 41.5 °F 30.2 °F 53% 29.98 in 10.0 mi South 10.4 mph - N/A Rain Rain
9:35 AM 48.2 °F - 30.2 °F 50% 29.97 in 10.0 mi South 9.2 mph - N/A   Light Drizzle
9:55 AM 48.2 °F - 30.2 °F 50% 29.97 in 10.0 mi South 6.9 mph - N/A Rain Light Rain
10:15 AM 50.0 °F - 32.0 °F 50% 29.97 in 10.0 mi South 6.9 mph - N/A Rain Light Rain
10:55 AM 50.0 °F - 35.6 °F 58% 29.98 in 10.0 mi South 8.1 mph - N/A Rain Light Rain
11:15 AM 51.8 °F - 35.6 °F 54% 29.97 in 10.0 mi South 6.9 mph - N/A Rain Light Rain
11:35 AM 51.8 °F - 33.8 °F 50% 29.96 in 10.0 mi South 5.8 mph - N/A   Scattered Clouds
11:55 AM 53.6 °F - 30.2 °F 41% 29.96 in 10.0 mi SSW 4.6 mph - N/A   Scattered Clouds
12:15 PM 57.2 °F - 30.2 °F 36% 29.95 in 10.0 mi South 4.6 mph - N/A   Clear
12:35 PM 57.2 °F - 30.2 °F 36% 29.94 in 10.0 mi South 6.9 mph - N/A   Clear
12:55 PM 59.0 °F - 30.2 °F 34% 29.93 in 10.0 mi South 5.8 mph - N/A   Clear
1:15 PM 60.8 °F - 30.2 °F 31% 29.92 in 10.0 mi SSW 5.8 mph - N/A   Clear
1:35 PM 60.8 °F - 30.2 °F 31% 29.91 in 10.0 mi South 8.1 mph - N/A   Scattered Clouds
1:55 PM 60.8 °F - 30.2 °F 31% 29.90 in 10.0 mi South 11.5 mph - N/A   Clear
2:15 PM 62.6 °F - 28.4 °F 27% 29.89 in 10.0 mi SW 10.4 mph - N/A   Scattered Clouds
2:35 PM 60.8 °F - 28.4 °F 29% 29.89 in 10.0 mi SW 8.1 mph - N/A   Scattered Clouds
2:55 PM 60.8 °F - 28.4 °F 29% 29.88 in 10.0 mi SSW 8.1 mph - N/A   Clear
3:15 PM 60.8 °F - 28.4 °F 29% 29.88 in 10.0 mi South 11.5 mph - N/A   Clear
3:35 PM 60.8 °F - 28.4 °F 29% 29.87 in 10.0 mi SSW 10.4 mph - N/A   Scattered Clouds
3:55 PM 60.8 °F - 28.4 °F 29% 29.87 in 10.0 mi South 5.8 mph - N/A   Scattered Clouds
4:15 PM 60.8 °F - 28.4 °F 29% 29.87 in 10.0 mi South 10.4 mph - N/A   Clear
4:35 PM 59.0 °F - 28.4 °F 31% 29.87 in 10.0 mi South 12.7 mph 17.3 mph N/A   Scattered Clouds
4:55 PM 57.2 °F - 28.4 °F 33% 29.87 in 10.0 mi South 6.9 mph - N/A   Scattered Clouds
5:15 PM 57.2 °F - 30.2 °F 36% 29.88 in 10.0 mi South 9.2 mph - N/A   Scattered Clouds
5:35 PM 57.2 °F - 30.2 °F 36% 29.87 in 10.0 mi South 6.9 mph - N/A   Clear
5:55 PM 57.2 °F - 32.0 °F 38% 29.87 in 10.0 mi South 6.9 mph - N/A   Scattered Clouds
6:15 PM 57.2 °F - 32.0 °F 38% 29.87 in 10.0 mi South 8.1 mph - N/A   Scattered Clouds
6:55 PM 55.4 °F - 33.8 °F 44% 29.88 in 10.0 mi South 8.1 mph - N/A   Scattered Clouds
7:15 PM 53.6 °F - 33.8 °F 47% 29.87 in 10.0 mi South 6.9 mph - N/A   Clear
7:35 PM 51.8 °F - 35.6 °F 54% 29.86 in 10.0 mi South 4.6 mph - N/A   Clear
7:55 PM 51.8 °F - 33.8 °F 50% 29.87 in 10.0 mi South 4.6 mph - N/A   Clear
8:15 PM 46.4 °F - 33.8 °F 62% 29.87 in 10.0 mi Calm Calm - N/A   Clear
8:35 PM 44.6 °F - 33.8 °F 66% 29.87 in 10.0 mi Calm Calm - N/A   Clear
8:55 PM 42.8 °F - 32.0 °F 66% 29.88 in 10.0 mi Calm Calm - N/A   Clear
9:15 PM 39.2 °F - 30.2 °F 70% 29.88 in 10.0 mi Calm Calm - N/A   Scattered Clouds
9:35 PM 41.0 °F - 32.0 °F 70% 29.88 in 10.0 mi Calm Calm - N/A   Mostly Cloudy
9:55 PM 44.6 °F - 35.6 °F 71% 29.89 in 10.0 mi Calm Calm - N/A   Mostly Cloudy
10:15 PM 44.6 °F - 33.8 °F 66% 29.90 in 10.0 mi Calm Calm - N/A   Mostly Cloudy
10:35 PM 44.6 °F - 35.6 °F 71% 29.89 in 10.0 mi Calm Calm - N/A   Mostly Cloudy
10:55 PM 44.6 °F - 33.8 °F 66% 29.89 in 10.0 mi Calm Calm - N/A   Mostly Cloudy
11:15 PM 42.8 °F - 35.6 °F 76% 29.89 in 10.0 mi Calm Calm - N/A   Mostly Cloudy
11:35 PM 44.6 °F - 35.6 °F 71% 29.89 in 10.0 mi Calm Calm - N/A   Mostly Cloudy
11:55 PM 44.6 °F - 35.6 °F 71% 29.88 in 10.0 mi Calm Calm - N/A   Mostly Cloudy